Perth, Western Australia

2:46 AM AWST on September 28, 2016 (GMT +0800)
Perth International

Weather History for YPPH - June, 2013

Change the Weather History Date:

Friday, June 14, 2013

  Actual Average Record
Temperature  
Mean Temperature 58 °F -  
Max Temperature 67 °F 65 °F 73 °F (2006)
Min Temperature 48 °F 46 °F 33 °F (2014)
Degree Days  
Heating Degree Days 8    
Growing Degree Days 8 (Base 50)    
Moisture  
Dew Point 40 °F    
Average Humidity 49    
Maximum Humidity 77    
Minimum Humidity 30    
Precipitation  
Precipitation 0.00 in - - ()
Sea Level Pressure  
Sea Level Pressure 29.98 in    
Wind  
Wind Speed 13 mph ()    
Max Wind Speed 18 mph    
Max Gust Speed -    
Visibility 13.0 miles    
Events      
Averages and records for this station are not official NWS values.
T = Trace of Precipitation, MM = Missing Value Source: Averaged Metar Reports

Daily Weather History Graph

Daily Weather History Graph

Search for Another Location

Airport or City:

Trip Planner

Search our weather history database for the weather conditions in past years. The results will help you decide how hot, cold, wet, or windy it might be!

Date:

Astronomy

Jun. 14, 2013 Rise Set
Actual Time 7:14 AM AWST 5:18 PM AWST
Civil Twilight 6:47 AM AWST 5:45 PM AWST
Nautical Twilight 6:16 AM AWST 6:16 PM AWST
Astronomical Twilight 5:46 AM AWST 6:45 PM AWST
Moon 10:43 AM AWST (6/14) 10:22 PM AWST (6/14)
Length of Visible Light 10h 58m
Length of Day
10h 04m
Waxing Crescent, 25% of the Moon is Illuminated
Jun 14
Waxing Crescent
Jun 17
First Quarter
Jun 23
Full
Jun 30
Last Quarter
Jul 8
New

Hourly Weather History & Observations

Time (AWST) Temp. Dew Point Humidity Pressure Visibility Wind Dir Wind Speed Gust Speed Precip Events Conditions
12:00 AM 56 °F 36 °F 36% 30.00 in 19 mi ENE 16.1 mph - -   Partly Cloudy
12:00 AM 55.4 °F 37.4 °F 51% 29.98 in - ENE 16.1 mph - N/A   Clear
12:30 AM 57.2 °F 35.6 °F 44% 29.98 in - ENE 17.3 mph - N/A   Clear
1:00 AM 55.4 °F 35.6 °F 47% 29.98 in - ENE 16.1 mph - N/A   Clear
1:30 AM 55.4 °F 35.6 °F 47% 29.98 in - ENE 17.3 mph - N/A   Clear
2:00 AM 56 °F 35 °F 32% 29.99 in - NE 15.0 mph - -  
2:00 AM 55.4 °F 33.8 °F 44% 29.98 in - NE 15.0 mph - N/A   Clear
2:30 AM 55.4 °F 35.6 °F 47% 29.98 in - ENE 13.8 mph - N/A   Clear
3:00 AM 55 °F 35 °F 34% 29.99 in 19 mi NE 10.4 mph - -   Partly Cloudy
3:00 AM 55.4 °F 35.6 °F 47% 29.98 in - NE 10.4 mph - N/A   Clear
3:30 AM 55.4 °F 35.6 °F 47% 29.98 in - NE 10.4 mph - N/A   Clear
4:00 AM 53.6 °F 35.6 °F 51% 29.98 in - ENE 15.0 mph - N/A   Clear
4:30 AM 53.6 °F 35.6 °F 51% 29.98 in - ENE 16.1 mph - N/A   Clear
5:00 AM 53 °F 35 °F 38% 29.99 in - ENE 13.8 mph - -  
5:00 AM 53.6 °F 35.6 °F 51% 29.98 in - ENE 13.8 mph - N/A   Clear
5:30 AM 51.8 °F 33.8 °F 50% 29.98 in - ENE 16.1 mph - N/A   Clear
6:00 AM 53 °F 34 °F 37% 29.98 in 19 mi ENE 17.3 mph - -   Partly Cloudy
6:00 AM 53.6 °F 33.8 °F 47% 29.98 in - ENE 17.3 mph - N/A   Clear
6:30 AM 51.8 °F 33.8 °F 50% 29.98 in 6.2 mi ENE 18.4 mph - N/A   Partly Cloudy
7:00 AM 51.8 °F 35.6 °F 54% 29.98 in 6.2 mi ENE 17.3 mph - N/A   Partly Cloudy
7:30 AM 51.8 °F 35.6 °F 54% 29.98 in - ENE 15.0 mph - N/A   Clear
8:00 AM 52 °F 35 °F 41% 30.00 in - ENE 13.8 mph - -  
8:00 AM 51.8 °F 35.6 °F 54% 29.98 in - ENE 13.8 mph - N/A   Clear
8:30 AM 53.6 °F 35.6 °F 51% 29.98 in - ENE 17.3 mph - N/A   Clear
9:00 AM 55 °F 37 °F 39% 30.00 in 19 mi ENE 17.3 mph - -   Partly Cloudy
9:00 AM 55.4 °F 37.4 °F 51% 29.98 in - ENE 17.3 mph - N/A   Clear
9:30 AM 57.2 °F 37.4 °F 48% 29.98 in - ENE 17.3 mph - N/A   Clear
10:00 AM 57.2 °F 39.2 °F 51% 29.98 in - ENE 16.1 mph - N/A   Clear
10:30 AM 60.8 °F 41.0 °F 48% 29.98 in - ENE 15.0 mph - N/A   Clear
11:00 AM 64 °F 41 °F 32% 29.99 in - ENE 12.7 mph - -  
11:00 AM 64.4 °F 41.0 °F 42% 29.98 in - ENE 12.7 mph - N/A   Clear
11:30 AM 66.2 °F 41.0 °F 40% 29.95 in - ENE 15.0 mph - N/A   Clear
12:00 PM 66 °F 42 °F 30% 29.96 in 19 mi ENE 15.0 mph - -   Partly Cloudy
12:00 PM 66.2 °F 41.0 °F 40% 29.95 in - ENE 15.0 mph - N/A   Clear
12:30 PM 66.2 °F 42.8 °F 43% 29.95 in - ENE 15.0 mph - N/A   Clear
1:00 PM 66.2 °F 41.0 °F 40% 29.92 in - ENE 18.4 mph - N/A   Clear
1:30 PM 64.4 °F 41.0 °F 42% 29.92 in - ENE 15.0 mph - N/A   Clear
2:00 PM 65 °F 42 °F 31% 29.94 in - East 12.7 mph - -  
2:00 PM 66.2 °F 42.8 °F 43% 29.92 in - East 12.7 mph - N/A   Clear
2:30 PM 64.4 °F 42.8 °F 45% 29.92 in - ENE 11.5 mph - N/A   Clear
3:00 PM 64 °F 43 °F 35% 29.94 in 19 mi East 10.4 mph - -   Partly Cloudy
3:00 PM 64.4 °F 42.8 °F 45% 29.92 in - East 10.4 mph - N/A   Clear
3:30 PM 64.4 °F 42.8 °F 45% 29.92 in - East 8.1 mph - N/A   Clear
4:00 PM 66.2 °F 42.8 °F 43% 29.92 in - East 10.4 mph - N/A   Clear
4:30 PM 64.4 °F 42.8 °F 45% 29.95 in - East 11.5 mph - N/A   Clear
5:00 PM 64 °F 43 °F 34% 29.96 in - East 9.2 mph - -  
5:00 PM 64.4 °F 42.8 °F 45% 29.95 in - East 9.2 mph - N/A   Clear
5:30 PM 62.6 °F 42.8 °F 48% 29.95 in - East 8.1 mph - N/A   Clear
6:00 PM 60 °F 44 °F 44% 29.98 in 19 mi East 8.1 mph - -   Partly Cloudy
6:00 PM 60.8 °F 44.6 °F 55% 29.98 in - East 8.1 mph - N/A   Clear
6:30 PM 59.0 °F 42.8 °F 55% 29.98 in - East 12.7 mph - N/A   Clear
7:00 PM 59.0 °F 42.8 °F 55% 29.98 in - ENE 12.7 mph - N/A   Clear
7:30 PM 57.2 °F 42.8 °F 59% 29.98 in - ENE 11.5 mph - N/A   Clear
8:00 PM 57 °F 43 °F 49% 30.01 in - ENE 12.7 mph - -  
8:00 PM 57.2 °F 42.8 °F 59% 30.01 in - ENE 12.7 mph - N/A   Clear
8:30 PM 57.2 °F 44.6 °F 63% 30.01 in - ENE 11.5 mph - N/A   Clear
9:00 PM 56 °F 46 °F 61% 30.03 in 19 mi NE 10.4 mph - -   Partly Cloudy
9:00 PM 57.2 °F 46.4 °F 67% 30.01 in - NE 10.4 mph - N/A   Clear
9:30 PM 55.4 °F 46.4 °F 72% 30.04 in 6.2 mi NE 12.7 mph - N/A   Partly Cloudy
10:00 PM 55.4 °F 46.4 °F 72% 30.04 in 6.2 mi NE 10.4 mph - N/A   Partly Cloudy
10:30 PM 55.4 °F 48.2 °F 77% 30.04 in 6.2 mi ENE 9.2 mph - N/A   Mostly Cloudy
11:00 PM 55 °F 47 °F 67% 30.06 in - ENE 17.3 mph - -  
11:00 PM 55.4 °F 46.4 °F 72% 30.04 in 6.2 mi ENE 17.3 mph - N/A   Mostly Cloudy
11:30 PM 55.4 °F 46.4 °F 72% 30.06 in 6.2 mi ENE 18.4 mph - N/A   Mostly Cloudy